TIME,DELAY(SENSOR),PRES,T(CTD),SAL,OXYGEN,RAWTEMP,T(OPTODE),TCPHASE,FLUOR,BETA(BETA700),BETA(BETA412),BETA(BETA440),CDOM,C(CSC),ED(ED412.40),ED(ED444.00),ED(ED489.70),ED(ED554.30),LU(LU411.80),LU(LU443.40),LU(LU489.60),LU(LU554.10),COMP,TILTX,TILTX(TILTY),CHECK
1345152563,5809,496.3999938964844000,6.3461999893188480,34.1908988952636700,57.2648010253906250,607.5607299804688000,6.3397560119628910,51.8848800659179700,52,104,90,80,81,15323,2147753325,2147421760,2148004425,2147871478,2147633554,2147071469,2148242587,2147199414,1850,4,13,9132
1345152680,5812,485.2399902343750000,6.5482001304626465,34.1729011535644500,67.7712402343750000,600.9041137695312000,6.5550580024719240,50.4107398986816400,53,106,87,80,80,15322,2147752219,2147423122,2148002980,2147874285,2147631780,2147073627,2148246308,2147199323,1859,4,13,52017
1345152795,5809,474.1000061035156000,6.7056999206542970,34.1585998535156250,74.4811172485351600,596.0538940429688000,6.7116661071777340,49.5115890502929700,52,104,87,80,79,15323,2147748498,2147421147,2148003474,2147876068,2147629915,2147080155,2148241581,2147205293,3067,4,13,38275
1345152912,5807,463.1199951171875000,6.8733000755310060,34.1503982543945300,80.8637771606445300,591.8245239257812000,6.8480491638183590,48.6866302490234400,52,105,89,80,80,15323,2147746532,2147421750,2148005257,2147873755,2147627766,2147078756,2148244900,2147202980,462,4,13,43309
1345153027,5810,452.6000061035156000,7.0437998771667480,34.1347007751464840,87.0915374755859400,585.8610229492188000,7.0400681495666500,47.8817596435546900,51,105,91,80,79,15325,2147751643,2147423990,2148006811,2147873417,2147629357,2147079835,2148239652,2147202733,411,4,13,48147
1345153156,5811,440.9200134277344000,7.1637001037597660,34.1287994384765600,95.0427474975586000,582.0546264648438000,7.1624569892883300,46.9435806274414060,51,104,85,82,79,15326,2147750564,2147421824,2148001051,2147870198,2147627465,2147080219,2148237558,2147202870,1231,5,13,21228
1345153271,5806,430.4800109863281000,7.3868999481201170,34.1222991943359400,102.8360977172851600,575.5618896484375000,7.3709220886230470,46.0130996704101560,52,107,84,80,78,15327,2147750656,2147418569,2148002532,2147872868,2147626505,2147080557,2148241225,2147204077,1947,4,13,13747
1345153398,5811,419.1400146484375000,7.6442999839782715,34.1231002807617200,109.8547973632812500,567.2487792968750000,7.6372871398925780,45.1602783203125000,51,106,89,80,78,15325,2147747510,2147422930,2148003904,2147871972,2147626550,2147081499,2148238400,2147200630,1208,4,13,8127
1345153527,5809,407.8099975585937500,7.9194998741149900,34.1172981262207000,119.9654006958007800,559.1743164062500000,7.8954300880432130,44.0387001037597660,51,106,86,81,76,15323,2147745974,2147423094,2148005677,2147872484,2147622893,2147084937,2148239296,2147201426,864,4,13,56480
1345153642,5808,397.7999877929687500,8.1345996856689450,34.1085014343261700,130.5708007812500000,551.6060180664062000,8.1368913650512700,42.9293785095214840,50,106,87,80,77,15324,2147744000,2147420873,2148004534,2147873856,2147622802,2147090221,2148229805,2147201874,1170,4,13,61562
1345153783,5806,386.1499938964844000,8.4232997894287110,34.1134986877441400,139.7324981689453000,543.1151733398438000,8.4072151184082030,41.9772491455078100,50,107,87,81,75,15324,2147746669,2147419949,2147999323,2147873920,2147620379,2147087570,2148229558,2147203556,1811,4,14,41969
1345153922,5807,375.6099853515625000,8.7248001098632810,34.1170997619628900,148.9839019775390600,533.7097778320312000,8.7059822082519530,41.0404586791992200,50,107,88,80,75,15324,2147745316,2147419446,2147999360,2147873938,2147621467,2147093293,2148232987,2147203218,1818,4,13,44405
1345154093,5810,362.2099914550781000,9.0020999908447270,34.1167984008789060,158.3045959472656200,524.7980957031250000,8.9884281158447270,40.1447906494140600,50,106,90,80,77,15323,2147742555,2147420891,2148002441,2147870171,2147620077,2147101824,2148227785,2147204699,1287,4,13,54786
1345154209,5808,350.7600097656250000,9.2613000869750980,34.1137008666992200,168.4528961181640600,514.7581787109375000,9.3059072494506840,39.2048110961914060,50,105,88,81,76,15324,2147741522,2147422308,2148002980,2147872539,2147618825,2147094034,2148228470,2147208457,1293,4,13,15282
1345154312,5805,340.2699890136719000,9.8360996246337890,34.1309013366699200,174.9689941406250000,498.1541137695312500,9.8293485641479500,38.4491195678710940,50,107,92,81,73,15324,2147740251,2147419913,2148001938,2147873088,2147614381,2147098377,2148227538,2147206454,287,3,13,18852
1345154429,5809,328.4599914550781000,10.2505998611450200,34.1472015380859400,185.1688995361328000,485.3944091796875000,10.2302904129028320,37.5308990478515600,49,106,84,80,72,15323,2147740333,2147424466,2148003163,2147869184,2147615158,2147104987,2148225152,2147204297,2859,4,13,3453
1345154532,5809,318.1199951171875000,10.5431995391845700,34.1591987609863300,191.7015075683593800,473.9489135742187500,10.5890302658081050,36.9100608825683600,50,107,89,80,74,15321,2147737106,2147424877,2148005037,2147870162,2147613376,2147104859,2148225316,2147205732,3230,4,13,52025
1345154647,5806,306.9899902343750000,10.9849996566772460,34.1635017395019500,199.0124053955078000,461.2840881347656000,10.9850301742553710,36.2382202148437500,48,104,90,81,72,15324,2147736027,2147422537,2148009810,2147870838,2147611803,2147110573,2148223844,2147209197,2174,4,13,59602
1345154764,5810,296.3599853515625000,11.3385000228881840,34.1847000122070300,223.9465026855468800,450.0975036621094000,11.3339996337890620,34.6136589050293000,48,104,90,80,69,15328,2147733750,2147423634,2148008905,2147871771,2147607652,2147110857,2148224603,2147207387,1934,4,14,30184
1345154891,5812,285.8900146484375000,11.6458997726440430,34.1996002197265600,231.2353057861328000,439.9230041503906000,11.6507902145385740,34.0643882751464840,49,103,88,82,69,15328,2147734464,2147425371,2148018358,2147873618,2147608521,2147116068,2148222134,2147206692,1517,3,14,31239
1345155044,5807,274.9400024414062500,12.1475000381469730,34.2389984130859400,235.0915985107422000,423.4161071777344000,12.1635599136352540,33.6071510314941400,48,103,90,80,68,15326,2147731428,2147433124,2148031424,2147871387,2147604672,2147122267,2148226432,2147209389,1949,3,13,62549
1345155231,5810,264.3500061035156000,12.8920001983642580,34.2897987365722660,237.3363952636718800,400.8677978515625000,12.8618202209472660,33.1464881896972660,48,104,92,79,68,15324,2147729252,2147434176,2148036187,2147872365,2147595849,2147129325,2148227382,2147210761,568,4,14,56193
1345155413,5804,252.2700042724609400,13.3364000320434570,34.3184013366699200,236.7402038574218800,385.7059020996094000,13.3300695419311520,32.9464416503906250,48,103,88,80,67,15324,2147727561,2147440310,2148050029,2147870080,2147593755,2147136804,2148230637,2147209481,1251,3,15,47951
1345155540,5807,241.2899932861328000,13.8598003387451170,34.3185005187988300,227.2767028808593800,368.0415954589844000,13.8744401931762700,33.1641197204589840,48,103,87,82,68,15317,2147728694,2147453824,2148097216,2147870793,2147591670,2147149979,2148253101,2147212160,608,4,14,6441
1345155669,5809,229.6999969482422000,14.5665998458862300,34.3964996337890600,226.2440032958984400,345.5300903320312500,14.5665998458862300,32.8836288452148440,47,102,86,80,68,15319,2147726619,2147473709,2148134354,2147875419,2147592594,2147164928,2148270253,2147213668,1456,3,14,43382
1345155796,5808,218.5500030517578000,15.3530998229980470,34.4734992980957000,225.6546020507812500,320.4613037109375000,15.3356199264526370,32.5472602844238300,49,105,86,79,67,15316,2147733302,2147528365,2148272265,2147874925,2147591844,2147201590,2148328630,2147220617,1629,4,13,3833
1345155949,5808,207.9400024414062500,15.7273998260498050,34.4732017517089840,222.3394927978515600,306.8268127441406000,15.7532300949096680,32.5238990783691400,49,106,87,81,68,15316,2147751744,2147661394,2148592228,2147874733,2147595702,2147282157,2148487323,2147231945,304,3,14,52001
1345156124,5808,198.3000030517578000,16.4347000122070300,34.5704994201660160,221.2086944580078000,284.0111083984375000,16.4512596130371100,32.2573318481445300,49,104,88,80,67,15311,2147770313,2147743826,2148731346,2147874139,2147601581,2147334939,2148554221,2147235840,2714,3,14,23988
1345156191,5809,194.1000061035156200,16.6604003906250000,34.5890007019043000,220.1338958740234400,275.9440002441406000,16.6978797912597660,32.1993789672851560,48,106,87,81,66,15312,2147798390,2147855140,2148969618,2147875136,2147611803,2147405156,2148666569,2147245741,2904,3,14,63172
1345156248,5809,190.3000030517578000,17.0352993011474600,34.6290016174316400,218.1920013427734400,265.0586853027344000,17.0305309295654300,32.1489982604980500,50,105,89,80,66,15310,2147797558,2147832356,2148889280,2147875081,2147610514,2147388406,2148630107,2147241005,2739,3,14,49084
1345156315,5808,185.6600036621093800,17.6049995422363280,34.6959991455078100,215.7169036865234400,247.6123046875000000,17.5634708404541000,32.0369300842285160,50,107,87,81,65,15310,2147796672,2147805723,2148791552,2147875364,2147608621,2147373933,2148581366,2147240539,2623,3,14,8125
1345156370,5806,181.8899993896484400,17.7656002044677730,34.7309989929199200,216.2989959716797000,242.2353057861328000,17.7276897430419920,31.9302806854248050,51,105,90,80,66,15309,2147808960,2147833545,2148844114,2147876608,2147611035,2147398857,2148603739,2147241060,2855,3,15,33955
1345156425,5804,178.1100006103515600,18.2658004760742200,34.7951011657714840,215.8796997070312500,225.4815063476562500,18.2393207550048830,31.7205600738525400,51,105,87,80,67,15306,2147829220,2147900598,2148964059,2147875035,2147620534,2147437440,2148662189,2147245366,334,3,15,1834
1345156492,5811,174.0200042724609400,18.4246997833251950,34.8278999328613300,217.8885040283203000,219.9046020507812500,18.4096298217773440,31.5367698669433600,53,103,89,81,65,15309,2147871204,2148024393,2149193133,2147878281,2147635510,2147512612,2148771474,2147254866,351,3,14,4169
1345156567,5802,170.1399993896484400,18.5254001617431640,34.8455009460449200,218.8941040039062500,216.5401000976562500,18.5123805999755860,31.4377708435058600,53,105,89,81,65,15303,2147848868,2147922660,2148956269,2147872018,2147625554,2147459986,2148656384,2147250157,3440,3,15,48464
1345156658,5808,166.8200073242187500,18.6798992156982420,34.8712005615234400,219.3069000244140600,211.1759033203125000,18.6762104034423830,31.3425998687744140,56,104,88,80,65,15306,2147868041,2147946998,2148972461,2147873883,2147634057,2147474459,2148664603,2147250020,3090,3,15,43580
1345156785,5807,162.8099975585937500,18.9636993408203120,34.9179992675781250,220.6775054931640600,202.3755950927734400,18.9450092315673830,31.1513404846191400,55,103,90,80,64,15299,2147895424,2147993499,2149037997,2147873636,2147646208,2147515072,2148695561,2147250066,2802,3,15,23415
1345156884,5808,158.6799926757812500,19.3285007476806640,34.9812011718750000,221.5791015625000000,190.3910980224609400,19.3111591339111330,30.9428501129150400,57,108,89,81,64,15298,2147960384,2148129462,2149249673,2147877037,2147675419,2147589604,2148804233,2147261604,3356,3,15,26607
1345156963,5807,154.3800048828125000,19.5249004364013670,35.0144004821777340,223.1759033203125000,183.9882049560547000,19.5068397521972660,30.7750205993652340,60,105,86,80,64,15291,2148022180,2148259574,2149459062,2147879780,2147704493,2147680987,2148911579,2147265444,2622,3,15,19080
1345157030,5810,150.4700012207031200,19.6292991638183600,35.0325012207031250,224.0583953857422000,180.2037048339843800,19.6225204467773440,30.6795005798339840,60,107,91,81,63,15292,2148079981,2148355428,2149614692,2147878665,2147729106,2147742656,2148983360,2147272905,2087,3,15,60148
1345157109,5811,146.0099945068359400,19.8899993896484380,35.0685997009277340,224.7346038818359400,172.1114959716797000,19.8699398040771500,30.5374507904052730,64,112,92,82,63,15290,2148156772,2148485156,2149806546,2147880694,2147767268,2147826176,2149082678,2147280320,1341,2,15,29775
1345157178,5807,142.4900054931640600,20.0552997589111330,35.0923995971679700,225.4907989501953000,166.2635040283203000,20.0487899780273440,30.4219703674316400,65,111,88,82,64,15284,2148217846,2148586395,2149955099,2147882432,2147799661,2147891428,2149163995,2147286217,675,3,15,54077
1345157269,5812,138.6199951171875000,20.3362998962402340,35.1053009033203100,225.3119049072265600,158.4024963378906200,20.2893104553222660,30.3266792297363280,75,115,90,82,63,15276,2148268132,2148637266,2150020873,2147882002,2147818834,2147926445,2149184009,2147288374,644,3,15,2240
1345157396,5806,135.2100067138672000,20.4706001281738280,35.1231994628906250,224.9745025634765600,152.7615966796875000,20.4619693756103500,30.2693290710449220,85,118,89,81,63,15267,2148337197,2148724032,2150147602,2147885632,2147848859,2147960329,2149230610,2147293796,1404,2,15,19929
1345157535,5809,130.4400024414062500,20.6676998138427730,35.1473007202148440,224.7308044433593800,146.4225006103515600,20.6560707092285160,30.1979198455810550,91,119,91,82,64,15262,2148518820,2148980690,2150531245,2147892571,2147926838,2148090011,2149389540,2147309120,787,2,15,40176
1345157614,5811,126.5299987792968800,20.7551002502441400,35.1607017517089840,224.9985961914062500,142.5641021728515600,20.7742500305175780,30.1339702606201170,89,117,91,83,63,15256,2148728374,2149278006,2150981787,2147900068,2148017435,2148239899,2149583049,2147320932,68,3,15,7663
1345157693,5810,122.3700027465820300,21.0153999328613280,35.1775016784668000,224.9008026123047000,134.9781036376953000,21.0067195892334000,30.0395393371582030,103,124,88,83,64,15240,2149031808,2149734866,2151659328,2147911204,2148148242,2148470345,2149866843,2147345371,3183,2,15,48634
1345157772,5807,118.2699966430664000,21.3691997528076170,35.2187995910644500,226.2100982666015600,125.7350006103515600,21.2901496887207030,29.8541603088378900,116,127,91,83,62,15220,2149490358,2150431625,2152706834,2147927734,2148337828,2148802560,2150292150,2147384960,3413,3,15,34431
1345157853,5809,114.4199981689453100,21.4547004699707030,35.2256011962890600,227.9116058349609400,122.4662017822265600,21.3904399871826170,29.7281303405761720,122,128,90,83,62,15203,2149962998,2151102464,2153666313,2147949156,2148529737,2149090185,2150661842,2147420763,711,3,15,35063
1345157944,5811,110.9000015258789000,21.7481002807617200,35.2577018737793000,230.4317932128906200,111.4339981079101600,21.7291393280029300,29.4637508392334000,139,127,91,85,61,15193,2150505929,2151865938,2154693312,2147970825,2148736667,2149389202,2151028059,2147453705,3521,2,15,55897
1345158119,5809,107.5699996948242200,21.9930992126464840,35.3008995056152340,238.8572998046875000,103.1315994262695300,21.9842700958251950,28.9619808197021500,142,126,91,84,62,15177,2151261348,2152890715,2155945225,2147998080,2149020845,2149725074,2151415588,2147492288,2123,2,15,20452
1345158281,5808,102.5199966430664000,22.1497001647949220,35.3095016479492200,243.6006927490234400,97.9086380004882800,22.1448802947998050,28.6806106567382800,116,126,91,83,62,15181,2153460608,2155935625,2159735908,2148090843,2149938642,2150983533,2152884617,2147633252,121,2,15,12746
1345158372,5806,98.4100036621093800,22.1895008087158200,35.3106002807617200,245.2295989990234400,96.4490585327148400,22.1897792816162100,28.5896205902099600,105,126,93,84,60,15185,2154780443,2157589494,2161475401,2148149933,2150557723,2151747657,2153692672,2147712612,3159,2,16,50327
1345158427,5808,95.8099975585937500,22.2483997344970700,35.3082008361816400,245.9434051513672000,94.3368530273437500,22.2547702789306640,28.5314598083496100,96,128,93,86,61,15194,2155511917,2158442276,2162261037,2148185709,2150931949,2152202944,2154112914,2147757467,2892,2,16,5061
1345158484,5810,93.2500000000000000,22.3486003875732420,35.3037986755371100,246.8052978515625000,91.6176300048828100,22.3384609222412100,28.4591503143310550,89,126,92,83,60,15187,2156397613,2159458788,2163268608,2148231881,2151411017,2152788013,2154675026,2147813037,2946,2,15,47708
1345158539,5808,90.9899978637695300,22.3764991760253900,35.3028984069824200,247.6938934326172000,90.7531585693359400,22.3650798797607420,28.4092693328857420,87,129,95,84,61,15180,2157523538,2160803840,2164693723,2148294016,2152019337,2153571721,2155436534,2147888292,3452,2,15,62397
1345158594,5805,89.0000000000000000,22.5016994476318360,35.2845001220703100,247.6602020263672000,86.6430130004882800,22.4916400909423830,28.3591403961181640,87,129,93,85,61,15170,2158779044,2162291794,2166271405,2148369280,2152686390,2154430628,2156264950,2147967094,153,2,16,27925
1345158661,5805,87.1999969482421900,22.5510005950927730,35.2815017700195300,248.5971984863281200,84.9696273803711000,22.5431804656982420,28.2972908020019530,81,133,92,86,59,15166,2159815241,2163425801,2167347858,2148425929,2153281691,2155152932,2156898605,2148029741,2895,2,16,38063
1345158752,5808,85.3099975585937500,22.6343994140625000,35.2729988098144500,249.7371978759765600,82.2704772949218800,22.6263504028320300,28.2141609191894530,84,133,93,87,60,15157,2160761069,2164311734,2167959881,2148468077,2153887478,2155807259,2157386614,2148075666,1745,2,16,62000
1345158843,5809,82.7900009155273400,22.7099990844726560,35.2710990905761700,251.1846008300781200,79.8842620849609400,22.6998901367187500,28.1219806671142580,80,133,94,87,59,15154,2163017755,2166687195,2170169078,2148595410,2155216621,2157356516,2158690468,2148210331,1358,2,16,39441
1345158898,5804,80.4400024414062500,22.7478008270263670,35.2648010253906250,251.7622985839843800,78.6128234863281200,22.7390899658203120,28.0812301635742200,81,134,97,87,59,15140,2165319122,2169157238,2172540507,2148734491,2156543734,2158897334,2160033545,2148341229,1565,2,15,37580
1345158953,5807,78.1200027465820300,22.7768993377685550,35.2592010498046900,251.6712951660156200,77.8765029907226600,22.7617893218994140,28.0760498046875000,81,139,96,86,59,15142,2167890669,2171879131,2175127716,2148909531,2158012553,2160584320,2161498852,2148495021,1945,2,16,46575
1345159008,5808,75.9199981689453100,22.8372001647949220,35.2484016418457000,251.0457000732422000,75.7199325561523400,22.8283004760742200,28.0760498046875000,82,136,97,88,58,15131,2170454080,2174449846,2177428068,2149086107,2159459291,2162190985,2162836672,2148650230,2392,2,16,45858
1345159063,5809,73.9199981689453100,22.9351005554199220,35.2386016845703100,251.0695037841797000,72.6499099731445300,22.9230003356933600,28.0369491577148440,80,139,98,86,59,15130,2173088813,2177007488,2179651593,2149262016,2160940964,2163785664,2164118034,2148791451,2827,2,15,32953
1345159141,5809,71.0299987792968800,23.0321998596191400,35.2354011535644500,251.4656066894531200,68.2908477783203100,23.0575294494628900,27.9657001495361330,80,135,95,87,61,15122,2178007579,2181720009,2183724123,2149608850,2163935003,2166917677,2166578971,2149066486,2573,2,15,40157
1345159196,5807,68.5999984741211000,23.2234992980957030,35.2263984680175800,252.5243988037109400,63.5604209899902340,23.2036209106445300,27.8620605468750000,76,140,97,88,61,15123,2182298066,2185749888,2187232640,2149938294,2166792109,2169826258,2168786002,2149323538,1856,2,15,43678
1345159251,5809,66.3700027465820300,23.4071006774902340,35.2288017272949200,253.1441955566406200,59.0204010009765600,23.3439102172851560,27.7795906066894530,75,143,98,88,57,15101,2186146221,2189250304,2190167378,2150281536,2169571995,2172537417,2170751058,2149563657,1982,3,16,53186
1345159306,5806,64.4700012207031200,23.5351009368896500,35.2400016784668000,253.9781951904297000,53.7220191955566400,23.5077590942382800,27.6791000366210940,77,144,100,91,58,15099,2189482102,2192172333,2192522889,2150561581,2172124470,2174939328,2172435410,2149771885,2493,2,16,21724
1345159361,5808,62.6500015258789060,23.6532993316650400,35.2396011352539060,254.6909942626953000,49.0315208435058600,23.6529102325439450,27.5913600921630860,75,143,99,90,57,15087,2193012946,2195281691,2195055680,2150912173,2174902308,2177538112,2174269421,2150005056,2475,2,16,28465
1345159416,5807,60.8199996948242200,23.8166999816894530,35.2346992492675800,254.8032989501953000,44.7392311096191400,23.7858200073242200,27.5340309143066400,74,144,98,90,58,15080,2197437156,2199417453,2198760868,2151374445,2178251483,2180773403,2176676891,2150315547,1869,2,16,21770
1345159494,5807,58.0699996948242200,24.2775001525878900,35.2206993103027340,252.7666015625000000,31.1320495605468750,24.2077808380126950,27.4527797698974600,71,149,98,90,58,15073,2206089069,2207884937,2206695085,2152449654,2185203382,2187607661,2181917750,2150989805,2002,2,15,60038
1345159549,5811,56.0400009155273440,24.4874992370605470,35.2267990112304700,251.6609039306640600,23.4461803436279300,24.4465293884277340,27.4054508209228500,70,144,101,90,57,15080,2213527652,2215374116,2213994989,2153510555,2191388388,2193815222,2186811501,2151635008,987,2,16,30118
1345159616,5807,54.1199989318847660,24.6326007843017580,35.2270011901855500,250.2850036621093800,18.4204196929931640,24.6028194427490230,27.4022407531738280,68,144,98,88,59,15088,2222779392,2224987565,2223578779,2154946907,2198672438,2201229915,2192799186,2152456557,297,3,15,7953
1345159695,5807,52.4300003051757800,24.8190994262695300,35.2570991516113300,248.5605010986328000,12.0835800170898440,24.8000698089599600,27.3983802795410160,68,145,97,92,57,15086,2231479881,2234198857,2232942235,2156372251,2205414034,2208210715,2198482770,2153263323,127,2,16,16168
1345159809,5806,49.9399986267089840,25.0182991027832030,35.2419013977050800,246.3094940185547000,5.6118159294128420,25.0017604827880860,27.4159908294677730,65,140,96,89,59,15095,2226373549,2227978825,2226142116,2156298212,2204678317,2206122560,2195782116,2153063350,516,2,15,39401
1345159876,5809,47.9199981689453100,25.0428009033203120,35.2270011901855500,245.5523071289062500,4.5032410621643070,25.0363292694091800,27.4351196289062500,63,142,99,88,57,15101,2225091200,2226108004,2223855094,2156582610,2206203776,2206628534,2195356800,2153095030,1013,3,16,25304
1345159943,5807,46.2599983215332000,25.1501007080078120,35.2284011840820300,244.3683013916015600,1.2292469739913940,25.1384696960449220,27.4463806152343750,63,139,95,89,58,15104,2225189449,2225911049,2223439963,2157070381,2208681718,2208238646,2195968484,2153273837,1621,2,16,8570
1345160046,5805,44.6300010681152340,25.2075996398925780,35.2266998291015600,243.3307037353515600,-0.9047002196311951,25.2050800323486330,27.4655895233154300,65,137,96,87,58,15114,2229251574,2229925248,2227240000,2158149366,2214824475,2213536402,2199459355,2153804086,2484,2,16,25413
1345160160,5808,42.0699996948242200,25.3201999664306640,35.2322006225585940,241.9707031250000000,-4.1828250885009770,25.3074607849121100,27.4849491119384770,61,138,95,88,58,15110,2241034953,2241839588,2238892288,2161109760,2231576411,2228191744,2209354450,2155285293,1772,3,16,57520
1345160227,5807,39.9799995422363300,25.4402999877929700,35.2484016418457000,240.9380035400390600,-8.6977691650390620,25.4485702514648440,27.4753303527832030,61,135,97,86,57,15116,2249988297,2251133613,2248123785,2164081298,2244771766,2239776932,2217157696,2156575076,2266,2,16,19963
1345160294,5810,37.8600006103515600,25.5214996337890620,35.2588996887207000,240.3005981445312500,-10.8318099975585940,25.5153102874755860,27.4773693084716800,60,134,96,87,54,15109,2257325065,2258548553,2255515675,2166980845,2257311899,2250450020,2224114861,2157780370,2966,2,16,14874
1345160349,5810,36.1300010681152340,25.5828990936279300,35.2634010314941400,239.7700958251953000,-12.8488302230834960,25.5784091949462900,27.4760398864746100,59,136,94,87,58,15117,2264818377,2266191899,2263170322,2169678884,2268632265,2260179821,2230493339,2158900333,3431,2,16,3542
1345160427,5808,32.9599990844726560,25.6746997833251950,35.2700004577636700,239.0124053955078000,-15.8639698028564450,25.6727905273437500,27.4728107452392580,58,132,93,87,55,15118,2274993974,2276593353,2273657545,2175561344,2286701257,2275266331,2240181421,2161088027,3004,2,16,62057